STARLINK-35510, 66397

Orbit data source: Space-Track

STARLINK-35510, 66397 is a payload satellite owned by SpaceX/Seattle (US) in LEO that was launched on Sat, 08 Nov 2025 UTC via an FALCON 9 launch vehicle from the Air Force Eastern Test Range (AFETR). Payload-class satellites include a variety of spacecraft equipped with specific instruments for various scientific and technological missions. These include communications satellites like Starlink; space stations such as the ISS; scientific satellites like the Hubble; Earth observation satellites from companies like Planet Labs, Umbra, and HawkEye 360; GPS; miniature CubeSats for education and research; and military/defense satellites.

Loading next visibility...
Identifier
66397, 2025-257T
Orbit
LEO
Country
Flag of USUS
Related business
Manufacturer
SpaceX/Seattle
Mission
Operational Commercial Communications
Bus & Motor
STARLINK V2MO, Unknown motor
Mass
575 kg wet, ~530 kg dry
Launch date (UTC)
2025-11-08 (7 months ago)
Launch vehicle
FALCON 9
Launch site
Air Force Eastern Test Range (AFETR)
Object type
Payload
Rocket body
Debris
Shape & HBR
Box + 2 Pan, 17.7 m
Radar Cross Section
36.964 m², Large (>1 m²)

Expand to show TLE details & history
Last TLE update: 2 days ago

TLE from 2 days ago
0 STARLINK-35510
1 66397U 25257T   26170.09701003  .00023344  00000-0  79760-3 0  9996
2 66397  53.1593 105.6949 0001363  89.0675 271.0482 15.30208829 35269
Epoch: 2026-06-19T02:19Z
TLE epoch observation values (Epoch: 2026-06-19T02:19:41.666Z)
Latitude
-0.00002°
Longitude
163.44039°
Altitude
476.071 km
Speed
7.629 km/s
True Right ascension
07h 02m 46s
True Declination
0° 00' 00"
Sunlit
Object was in daylight at epoch
Visualization orbit readout
Latitude
Unknown
Longitude
Unknown
Altitude
Unknown
Speed
Unknown
Apparent Right ascension
Unknown
Apparent Declination
Unknown
Sunlit
N/A
Visualization observer readout
Local Sidereal Time
07:14:24
Azimuth
Unknown
Elevation
Unknown
Doppler factor
Unknown
Orbital elements
Apogee altitude
476.379 km
Perigee altitude
474.511 km
Semi-major axis
6,853.582 km
Eccentricity
0.00014
Inclination
53.1593°
RAAN
105.6949°
Arg. of periapsis
89.0675°
True anomaly
271.03258°
Mean anomaly
271.0482°
Eccentric anomaly
271.04039°
Mean motion
3.82531 °/min
Orbital period
94.11 mins
BSTAR
0.0007976
Loading maneuver chart data...
Computing Atmospheric mass density...
Loading historical data...
Loading historical data...
Loading historical data...
Loading historical data...
Loading historical data...
Loading historical data...
Loading historical data...

Documentation

Showing up to 5 results
|